| time (UTC) | temp F | wind direction | speed knots | gust knots | rain 1hr in | rain 24hr in | rain mn in | humidity % | barometer mb |
| 20260510021004 | 62 | 279 | 7.0 | 20.9 | 0.00 | 0.05 | 0.01 | 75 | 1000.6 |
| 20260510020504 | 63 | 278 | 7.0 | 18.2 | 0.00 | 0.05 | 0.01 | 76 | 1000.6 |
| 20260510020004 | 62 | 276 | 7.8 | 19.1 | 0.00 | 0.05 | 0.01 | 76 | 1000.6 |
| 20260510015504 | 62 | 276 | 8.7 | 20.9 | 0.00 | 0.05 | 0.01 | 76 | 1000.6 |
| 20260510015004 | 62 | 280 | 8.7 | 22.6 | 0.00 | 0.05 | 0.01 | 76 | 1000.5 |
| 20260510014504 | 62 | 282 | 8.7 | 22.6 | 0.00 | 0.05 | 0.01 | 76 | 1000.4 |
| 20260510014004 | 62 | 281 | 7.8 | 26.1 | 0.00 | 0.05 | 0.01 | 77 | 1000.4 |
| 20260510013504 | 62 | 280 | 8.7 | 26.1 | 0.00 | 0.05 | 0.01 | 77 | 1000.5 |
| 20260510013219 | 62 | 277 | 9.6 | 26.1 | 0.00 | 0.05 | 0.01 | 76 | 1000.5 |
| 20260510012504 | 62 | 275 | 9.6 | 26.1 | 0.00 | 0.05 | 0.01 | 75 | 1000.6 |
| 20260510012004 | 62 | 276 | 9.6 | 23.5 | 0.00 | 0.05 | 0.01 | 75 | 1000.5 |
| 20260510011504 | 62 | 279 | 8.7 | 22.6 | 0.00 | 0.05 | 0.01 | 75 | 1000.5 |
| 20260510011218 | 62 | 281 | 8.7 | 22.6 | 0.00 | 0.05 | 0.01 | 74 | 1000.5 |
| 20260510010718 | 62 | 279 | 7.8 | 22.6 | 0.00 | 0.05 | 0.01 | 75 | 1000.5 |
| 20260510010004 | 62 | 280 | 7.0 | 24.3 | 0.00 | 0.05 | 0.01 | 76 | 1000.6 |
| 20260510005504 | 62 | 278 | 7.8 | 24.3 | 0.00 | 0.05 | 0.01 | 76 | 1000.6 |
| 20260510005004 | 62 | 283 | 7.8 | 20.9 | 0.00 | 0.05 | 0.01 | 76 | 1000.6 |
| 20260510004718 | 62 | 287 | 7.8 | 23.5 | 0.00 | 0.05 | 0.01 | 77 | 1000.7 |
| 20260510004004 | 62 | 289 | 7.8 | 23.5 | 0.00 | 0.05 | 0.01 | 77 | 1000.7 |
| 20260510003504 | 62 | 282 | 8.7 | 20.9 | 0.00 | 0.05 | 0.01 | 76 | 1000.7 |
| 20260510003004 | 62 | 278 | 7.8 | 22.6 | 0.00 | 0.05 | 0.01 | 77 | 1000.7 |
| 20260510002504 | 62 | 281 | 7.8 | 22.6 | 0.00 | 0.05 | 0.01 | 77 | 1000.8 |
| 20260510002218 | 62 | 285 | 7.8 | 22.6 | 0.00 | 0.05 | 0.01 | 76 | 1000.8 |
| 20260510001504 | 62 | 283 | 7.8 | 21.7 | 0.00 | 0.05 | 0.01 | 75 | 1000.9 |
| 20260510001003 | 62 | 283 | 7.8 | 22.6 | 0.00 | 0.05 | 0.01 | 76 | 1000.9 |
| 20260510000719 | 62 | 280 | 7.8 | 24.3 | 0.00 | 0.05 | 0.01 | 76 | 1000.9 |
| 20260510000004 | 62 | 284 | 8.7 | 26.9 | 0.00 | 0.05 | 0.01 | 77 | 1001.0 |
| 20260509235504 | 62 | 294 | 8.7 | 27.8 | 0.00 | 0.06 | 0.01 | 77 | 1001.0 |
| 20260509235004 | 62 | 294 | 8.7 | 27.8 | 0.00 | 0.06 | 0.01 | 77 | 1001.2 |
| 20260509234504 | 62 | 294 | 8.7 | 23.5 | 0.00 | 0.06 | 0.01 | 77 | 1001.2 |
| 20260509234004 | 62 | 298 | 7.8 | 18.2 | 0.00 | 0.06 | 0.01 | 77 | 1001.3 |
| 20260509233504 | 62 | 309 | 7.8 | 17.4 | 0.00 | 0.06 | 0.01 | 77 | 1001.3 |
| 20260509233004 | 62 | 317 | 7.8 | 21.7 | 0.00 | 0.06 | 0.01 | 77 | 1001.3 |
| 20260509232719 | 62 | 317 | 7.0 | 21.7 | 0.00 | 0.06 | 0.01 | 77 | 1001.3 |
| 20260509232004 | 62 | 305 | 7.0 | 20.0 | 0.00 | 0.06 | 0.01 | 78 | 1001.3 |
| 20260509231504 | 62 | 303 | 7.8 | 20.0 | 0.00 | 0.06 | 0.01 | 78 | 1001.3 |
| 20260509231004 | 62 | 306 | 7.8 | 22.6 | 0.00 | 0.06 | 0.01 | 79 | 1001.3 |
| 20260509230504 | 61 | 307 | 7.8 | 22.6 | 0.00 | 0.06 | 0.01 | 79 | 1001.3 |
| 20260509230005 | 61 | 305 | 7.8 | 20.0 | 0.01 | 0.06 | 0.01 | 81 | 1001.3 |
| 20260509225504 | 61 | 307 | 7.8 | 16.5 | 0.01 | 0.06 | 0.01 | 81 | 1001.4 |
| 20260509225004 | 61 | 309 | 7.8 | 19.1 | 0.01 | 0.06 | 0.01 | 81 | 1001.3 |
| 20260509224505 | 61 | 307 | 7.8 | 21.7 | 0.01 | 0.06 | 0.01 | 81 | 1001.3 |
| 20260509224005 | 61 | 299 | 7.8 | 21.7 | 0.01 | 0.06 | 0.01 | 81 | 1001.3 |
| 20260509223718 | 61 | 300 | 7.8 | 21.7 | 0.01 | 0.06 | 0.01 | 81 | 1001.3 |
| 20260509223004 | 60 | 307 | 7.0 | 18.2 | 0.01 | 0.06 | 0.01 | 83 | 1001.4 |
| 20260509222718 | 60 | 304 | 5.2 | 18.2 | 0.01 | 0.06 | 0.01 | 83 | 1001.4 |
| 20260509222217 | 60 | 300 | 5.2 | 14.8 | 0.01 | 0.06 | 0.01 | 83 | 1001.4 |
| 20260509221504 | 60 | 299 | 4.3 | 12.2 | 0.01 | 0.06 | 0.01 | 84 | 1001.5 |
| 20260509221004 | 59 | 306 | 5.2 | 22.6 | 0.01 | 0.06 | 0.01 | 85 | 1001.5 |
| 20260509220504 | 59 | 312 | 5.2 | 22.6 | 0.01 | 0.06 | 0.01 | 85 | 1001.5 |
| 20260509220004 | 59 | 312 | 5.2 | 13.9 | 0.00 | 0.05 | 0.00 | 85 | 1001.5 |
| 20260509215504 | 59 | 303 | 5.2 | 13.9 | 0.00 | 0.05 | 0.00 | 86 | 1001.5 |
| 20260509215004 | 58 | 302 | 3.5 | 13.0 | 0.00 | 0.05 | 0.00 | 88 | 1001.5 |
| 20260509214504 | 57 | 302 | 2.6 | 12.2 | 0.00 | 0.05 | 0.00 | 90 | 1001.5 |
| 20260509214004 | 57 | 302 | 1.7 | 7.8 | 0.00 | 0.05 | 0.00 | 91 | 1001.6 |
| 20260509213504 | 57 | 312 | 1.7 | 4.3 | 0.00 | 0.05 | 0.00 | 91 | 1001.6 |
| 20260509213004 | 57 | 313 | 1.7 | 5.2 | 0.00 | 0.05 | 0.00 | 91 | 1001.6 |
| 20260509212504 | 57 | 304 | 1.7 | 5.2 | 0.00 | 0.05 | 0.00 | 91 | 1001.6 |
| 20260509212004 | 57 | 299 | 1.7 | 7.8 | 0.00 | 0.05 | 0.00 | 91 | 1001.6 |
| 20260509211504 | 56 | 302 | 1.7 | 7.8 | 0.00 | 0.05 | 0.00 | 91 | 1001.6 |
| 20260509211219 | 56 | 301 | 1.7 | 7.8 | 0.00 | 0.05 | 0.00 | 91 | 1001.6 |
| 20260509210504 | 56 | 305 | 1.7 | 7.8 | 0.00 | 0.05 | 0.00 | 91 | 1001.6 |
| 20260509210004 | 56 | 306 | 1.7 | 7.8 | 0.00 | 0.05 | 0.00 | 91 | 1001.5 |
| 20260509205504 | 56 | 297 | 1.7 | 7.8 | 0.00 | 0.05 | 0.00 | 91 | 1001.6 |
| 20260509205004 | 56 | 297 | 2.6 | 11.3 | 0.00 | 0.05 | 0.00 | 91 | 1001.6 |
| 20260509204504 | 56 | 307 | 2.6 | 11.3 | 0.00 | 0.05 | 0.00 | 91 | 1001.6 |
| 20260509204004 | 56 | 308 | 2.6 | 7.8 | 0.00 | 0.05 | 0.00 | 91 | 1001.5 |
| 20260509203504 | 56 | 305 | 2.6 | 7.8 | 0.00 | 0.05 | 0.00 | 91 | 1001.4 |
| 20260509203003 | 56 | 306 | 2.6 | 7.8 | 0.00 | 0.05 | 0.00 | 91 | 1001.4 |
| 20260509202504 | 56 | 302 | 2.6 | 8.7 | 0.00 | 0.05 | 0.00 | 90 | 1001.3 |
| 20260509202219 | 56 | 298 | 2.6 | 8.7 | 0.00 | 0.05 | 0.00 | 90 | 1001.3 |
| 20260509201718 | 56 | 300 | 2.6 | 8.7 | 0.00 | 0.05 | 0.00 | 90 | 1001.2 |
| 20260509201004 | 55 | 302 | 1.7 | 6.1 | 0.00 | 0.05 | 0.00 | 90 | 1001.1 |
| 20260509200504 | 55 | 294 | 1.7 | 6.1 | 0.00 | 0.05 | 0.00 | 90 | 1001.0 |
| 20260509200004 | 55 | 295 | 1.7 | 6.1 | 0.00 | 0.05 | 0.00 | 90 | 1001.0 |
| 20260509195504 | 55 | 303 | 1.7 | 3.5 | 0.00 | 0.05 | 0.00 | 90 | 1001.0 |
| 20260509195004 | 55 | 300 | 0.9 | 3.5 | 0.00 | 0.05 | 0.00 | 90 | 1001.0 |
| 20260509194717 | 55 | 306 | 1.7 | 6.1 | 0.00 | 0.05 | 0.00 | 90 | 1001.0 |
| 20260509194004 | 55 | 304 | 1.7 | 7.8 | 0.00 | 0.05 | 0.00 | 90 | 1000.9 |
| 20260509193504 | 55 | 307 | 1.7 | 4.3 | 0.00 | 0.05 | 0.00 | 90 | 1000.9 |
| 20260509193004 | 55 | 306 | 1.7 | 4.3 | 0.00 | 0.05 | 0.00 | 90 | 1000.9 |
| 20260509192504 | 55 | 295 | 1.7 | 7.0 | 0.00 | 0.05 | 0.00 | 90 | 1000.9 |
| 20260509192004 | 55 | 292 | 1.7 | 7.0 | 0.00 | 0.05 | 0.00 | 89 | 1000.9 |
| 20260509191504 | 55 | 304 | 2.6 | 7.0 | 0.00 | 0.05 | 0.00 | 89 | 1000.8 |
| 20260509191004 | 55 | 315 | 1.7 | 7.8 | 0.00 | 0.05 | 0.00 | 89 | 1000.7 |
| 20260509190717 | 55 | 313 | 1.7 | 7.8 | 0.00 | 0.05 | 0.00 | 89 | 1000.7 |
| 20260509190004 | 55 | 304 | 1.7 | 6.1 | 0.00 | 0.05 | 0.00 | 89 | 1000.7 |
| 20260509185504 | 55 | 303 | 1.7 | 9.6 | 0.00 | 0.05 | 0.00 | 89 | 1000.7 |
| 20260509185004 | 55 | 306 | 2.6 | 9.6 | 0.00 | 0.05 | 0.00 | 89 | 1000.7 |
| 20260509184504 | 55 | 309 | 2.6 | 10.4 | 0.00 | 0.05 | 0.00 | 89 | 1000.7 |
| 20260509184004 | 55 | 312 | 2.6 | 10.4 | 0.00 | 0.05 | 0.00 | 89 | 1000.7 |
| 20260509183504 | 54 | 318 | 2.6 | 9.6 | 0.00 | 0.05 | 0.00 | 89 | 1000.7 |
| 20260509183004 | 54 | 315 | 1.7 | 7.0 | 0.00 | 0.05 | 0.00 | 89 | 1000.7 |
| 20260509182719 | 54 | 315 | 1.7 | 7.0 | 0.00 | 0.05 | 0.00 | 89 | 1000.7 |
| 20260509182218 | 54 | 305 | 1.7 | 7.8 | 0.00 | 0.05 | 0.00 | 89 | 1000.7 |
| 20260509181504 | 54 | 311 | 1.7 | 7.8 | 0.00 | 0.05 | 0.00 | 89 | 1000.8 |
| 20260509181004 | 54 | 309 | 1.7 | 6.1 | 0.00 | 0.05 | 0.00 | 89 | 1000.8 |
| 20260509180719 | 54 | 311 | 1.7 | 6.1 | 0.00 | 0.05 | 0.00 | 89 | 1000.8 |
| 20260509180004 | 54 | 318 | 1.7 | 6.1 | 0.00 | 0.05 | 0.00 | 89 | 1000.8 |
| 20260509175504 | 54 | 328 | 1.7 | 6.1 | 0.00 | 0.05 | 0.00 | 89 | 1000.8 |
| 20260509175004 | 54 | 326 | 1.7 | 5.2 | 0.00 | 0.05 | 0.00 | 89 | 1000.9 |
| 20260509174504 | 54 | 313 | 1.7 | 7.8 | 0.00 | 0.05 | 0.00 | 89 | 1000.9 |
| 20260509174004 | 54 | 310 | 1.7 | 7.8 | 0.00 | 0.05 | 0.00 | 89 | 1000.9 |
| 20260509173504 | 54 | 305 | 1.7 | 6.1 | 0.00 | 0.05 | 0.00 | 89 | 1000.9 |
| 20260509173004 | 54 | 302 | 1.7 | 5.2 | 0.00 | 0.05 | 0.00 | 89 | 1000.9 |
| 20260509172504 | 54 | 327 | 1.7 | 5.2 | 0.00 | 0.05 | 0.00 | 89 | 1000.8 |
| 20260509172218 | 54 | 328 | 1.7 | 5.2 | 0.00 | 0.05 | 0.00 | 89 | 1000.8 |
| 20260509171504 | 54 | 316 | 1.7 | 5.2 | 0.00 | 0.05 | 0.00 | 89 | 1000.8 |
| 20260509171004 | 54 | 323 | 1.7 | 5.2 | 0.00 | 0.05 | 0.00 | 89 | 1000.8 |
| 20260509170504 | 54 | 318 | 1.7 | 6.1 | 0.00 | 0.05 | 0.00 | 89 | 1000.8 |
| 20260509170218 | 54 | 312 | 1.7 | 6.1 | 0.00 | 0.05 | 0.00 | 89 | 1000.9 |
| 20260509165504 | 54 | 312 | 1.7 | 5.2 | 0.00 | 0.05 | 0.00 | 89 | 1000.8 |
| 20260509165004 | 54 | 320 | 1.7 | 5.2 | 0.00 | 0.05 | 0.00 | 89 | 1000.8 |
| 20260509164504 | 54 | 326 | 1.7 | 8.7 | 0.00 | 0.05 | 0.00 | 90 | 1000.8 |
| 20260509164004 | 54 | 313 | 1.7 | 8.7 | 0.00 | 0.05 | 0.00 | 90 | 1000.8 |
| 20260509163718 | 54 | 310 | 1.7 | 7.0 | 0.00 | 0.05 | 0.00 | 90 | 1000.8 |
| 20260509163004 | 54 | 317 | 1.7 | 7.0 | 0.00 | 0.05 | 0.00 | 90 | 1000.9 |
| 20260509162718 | 53 | 312 | 1.7 | 5.2 | 0.00 | 0.05 | 0.00 | 90 | 1000.9 |
| 20260509162004 | 53 | 324 | 1.7 | 5.2 | 0.00 | 0.05 | 0.00 | 90 | 1000.9 |
| 20260509161504 | 53 | 314 | 1.7 | 5.2 | 0.00 | 0.05 | 0.00 | 90 | 1000.9 |
| 20260509161004 | 53 | 320 | 1.7 | 7.0 | 0.00 | 0.05 | 0.00 | 90 | 1001.0 |
| 20260509160504 | 54 | 325 | 1.7 | 7.0 | 0.00 | 0.05 | 0.00 | 90 | 1000.9 |
| 20260509160004 | 54 | 312 | 1.7 | 6.1 | 0.00 | 0.05 | 0.00 | 90 | 1000.9 |
| 20260509155504 | 54 | 306 | 1.7 | 7.0 | 0.00 | 0.05 | 0.00 | 90 | 1001.0 |
| 20260509155005 | 54 | 308 | 1.7 | 7.0 | 0.00 | 0.05 | 0.00 | 90 | 1001.0 |
| 20260509154504 | 54 | 312 | 1.7 | 8.7 | 0.00 | 0.05 | 0.00 | 90 | 1001.1 |
| 20260509154004 | 54 | 309 | 1.7 | 8.7 | 0.00 | 0.05 | 0.00 | 89 | 1001.1 |
| 20260509153504 | 54 | 315 | 1.7 | 8.7 | 0.00 | 0.05 | 0.00 | 89 | 1001.1 |
| 20260509153004 | 54 | 320 | 2.6 | 6.1 | 0.00 | 0.05 | 0.00 | 89 | 1001.1 |
| 20260509152718 | 54 | 330 | 2.6 | 8.7 | 0.00 | 0.05 | 0.00 | 89 | 1001.1 |
| 20260509152004 | 54 | 325 | 2.6 | 8.7 | 0.00 | 0.05 | 0.00 | 88 | 1001.2 |
| 20260509151504 | 54 | 310 | 1.7 | 7.8 | 0.00 | 0.05 | 0.00 | 88 | 1001.2 |
| 20260509151219 | 54 | 300 | 1.7 | 7.0 | 0.00 | 0.05 | 0.00 | 88 | 1001.3 |
| 20260509150718 | 54 | 307 | 1.7 | 7.0 | 0.00 | 0.05 | 0.00 | 88 | 1001.3 |
| 20260509150004 | 54 | 309 | 1.7 | 6.1 | 0.00 | 0.05 | 0.00 | 88 | 1001.4 |
| 20260509145718 | 54 | 303 | 1.7 | 5.2 | 0.00 | 0.05 | 0.00 | 88 | 1001.4 |
| 20260509145004 | 54 | 314 | 1.7 | 5.2 | 0.00 | 0.05 | 0.00 | 88 | 1001.5 |
| 20260509144504 | 54 | 321 | 1.7 | 6.1 | 0.00 | 0.05 | 0.00 | 88 | 1001.5 |
| 20260509144004 | 54 | 320 | 1.7 | 6.1 | 0.00 | 0.05 | 0.00 | 88 | 1001.5 |
| 20260509143505 | 54 | 310 | 1.7 | 7.8 | 0.00 | 0.05 | 0.00 | 88 | 1001.5 |
| 20260509143004 | 54 | 305 | 1.7 | 7.8 | 0.00 | 0.05 | 0.00 | 88 | 1001.5 |
| 20260509142504 | 54 | 306 | 1.7 | 6.1 | 0.00 | 0.05 | 0.00 | 88 | 1001.4 |
| 20260509142005 | 54 | 306 | 2.6 | 9.6 | 0.00 | 0.05 | 0.00 | 88 | 1001.4 |
| 20260509141504 | 54 | 297 | 2.6 | 9.6 | 0.00 | 0.05 | 0.00 | 88 | 1001.4 |
| 20260509141218 | 54 | 295 | 2.6 | 8.7 | 0.00 | 0.05 | 0.00 | 88 | 1001.5 |
| 20260509140504 | 54 | 296 | 2.6 | 8.7 | 0.00 | 0.05 | 0.00 | 87 | 1001.5 |
| 20260509140222 | 54 | 290 | 1.7 | 7.0 | 0.00 | 0.05 | 0.00 | 87 | 1001.5 |
| 20260509135504 | 54 | 298 | 1.7 | 10.4 | 0.00 | 0.05 | 0.00 | 87 | 1001.6 |
| 20260509135004 | 54 | 299 | 1.7 | 10.4 | 0.00 | 0.05 | 0.00 | 86 | 1001.6 |
| 20260509134504 | 54 | 296 | 1.7 | 10.4 | 0.00 | 0.05 | 0.00 | 86 | 1001.5 |
| 20260509134004 | 54 | 298 | 2.6 | 6.1 | 0.00 | 0.05 | 0.00 | 85 | 1001.5 |
| 20260509133504 | 55 | 297 | 2.6 | 7.8 | 0.00 | 0.05 | 0.00 | 85 | 1001.5 |
| 20260509133004 | 54 | 296 | 2.6 | 7.8 | 0.00 | 0.05 | 0.00 | 84 | 1001.5 |
| 20260509132505 | 54 | 297 | 2.6 | 12.2 | 0.00 | 0.05 | 0.00 | 84 | 1001.4 |
| 20260509132004 | 54 | 295 | 2.6 | 12.2 | 0.00 | 0.05 | 0.00 | 83 | 1001.4 |
| 20260509131504 | 55 | 299 | 2.6 | 7.0 | 0.00 | 0.05 | 0.00 | 83 | 1001.4 |
| 20260509131004 | 55 | 306 | 2.6 | 9.6 | 0.00 | 0.05 | 0.00 | 83 | 1001.4 |
| 20260509130504 | 55 | 303 | 3.5 | 11.3 | 0.00 | 0.05 | 0.00 | 83 | 1001.5 |
| 20260509130218 | 55 | 299 | 3.5 | 11.3 | 0.00 | 0.05 | 0.00 | 83 | 1001.5 |
| 20260509125504 | 54 | 297 | 2.6 | 7.8 | 0.00 | 0.05 | 0.00 | 83 | 1001.5 |
| 20260509125218 | 54 | 300 | 1.7 | 8.7 | 0.00 | 0.05 | 0.00 | 83 | 1001.5 |
| 20260509124504 | 55 | 299 | 2.6 | 8.7 | 0.00 | 0.05 | 0.00 | 83 | 1001.5 |
| 20260509124004 | 55 | 294 | 2.6 | 11.3 | 0.00 | 0.05 | 0.00 | 83 | 1001.4 |
| 20260509123504 | 55 | 293 | 2.6 | 11.3 | 0.00 | 0.05 | 0.00 | 83 | 1001.4 |
| 20260509123004 | 55 | 302 | 1.7 | 5.2 | 0.00 | 0.05 | 0.00 | 83 | 1001.4 |
| 20260509122504 | 55 | 301 | 1.7 | 6.1 | 0.00 | 0.05 | 0.00 | 83 | 1001.5 |
| 20260509122004 | 55 | 302 | 2.6 | 9.6 | 0.00 | 0.06 | 0.00 | 83 | 1001.5 |
| 20260509121504 | 55 | 300 | 2.6 | 9.6 | 0.00 | 0.07 | 0.00 | 83 | 1001.5 |
| 20260509121004 | 55 | 285 | 1.7 | 6.1 | 0.00 | 0.07 | 0.00 | 83 | 1001.5 |
| 20260509120504 | 55 | 288 | 2.6 | 7.0 | 0.00 | 0.08 | 0.00 | 83 | 1001.6 |
| 20260509120220 | 55 | 293 | 2.6 | 7.8 | 0.00 | 0.08 | 0.00 | 83 | 1001.6 |
| 20260509115504 | 55 | 310 | 1.7 | 7.8 | 0.00 | 0.11 | 0.09 | 83 | 1001.6 |
| 20260509115004 | 55 | 310 | 1.7 | 7.0 | 0.00 | 0.13 | 0.09 | 83 | 1001.6 |
| 20260509114504 | 55 | 298 | 1.7 | 7.0 | 0.00 | 0.14 | 0.09 | 84 | 1001.7 |
| 20260509114004 | 54 | 294 | 1.7 | 6.1 | 0.00 | 0.15 | 0.09 | 84 | 1001.7 |
| 20260509113504 | 54 | 298 | 1.7 | 6.1 | 0.00 | 0.15 | 0.09 | 84 | 1001.8 |
| 20260509113004 | 54 | 298 | 1.7 | 6.1 | 0.00 | 0.15 | 0.09 | 84 | 1001.9 |
| 20260509112504 | 54 | 291 | 1.7 | 6.1 | 0.00 | 0.15 | 0.09 | 84 | 1001.9 |
| 20260509112004 | 54 | 296 | 1.7 | 4.3 | 0.00 | 0.15 | 0.09 | 85 | 1001.9 |
| 20260509111719 | 54 | 304 | 0.9 | 3.5 | 0.00 | 0.15 | 0.09 | 85 | 1001.9 |
| 20260509111217 | 54 | 298 | 1.7 | 3.5 | 0.00 | 0.15 | 0.09 | 85 | 1001.9 |
| 20260509110504 | 54 | 282 | 0.9 | 6.1 | 0.00 | 0.15 | 0.09 | 85 | 1001.9 |
| 20260509110004 | 54 | 285 | 0.9 | 4.3 | 0.00 | 0.15 | 0.09 | 85 | 1001.9 |
| 20260509105504 | 54 | 296 | 0.9 | 4.3 | 0.00 | 0.15 | 0.09 | 85 | 1001.9 |
| 20260509105004 | 54 | 300 | 0.9 | 5.2 | 0.00 | 0.15 | 0.09 | 85 | 1001.9 |
| 20260509104504 | 54 | 302 | 0.9 | 5.2 | 0.00 | 0.15 | 0.09 | 85 | 1001.9 |
| 20260509104004 | 54 | 299 | 0.9 | 5.2 | 0.00 | 0.15 | 0.09 | 84 | 1001.9 |
| 20260509103504 | 54 | 293 | 0.9 | 4.3 | 0.00 | 0.15 | 0.09 | 84 | 1001.9 |
| 20260509103004 | 54 | 288 | 0.9 | 3.5 | 0.00 | 0.15 | 0.09 | 84 | 1001.9 |
| 20260509102504 | 54 | 273 | 0.9 | 3.5 | 0.00 | 0.15 | 0.09 | 83 | 1001.9 |
| 20260509102004 | 54 | 279 | 0.9 | 3.5 | 0.00 | 0.15 | 0.09 | 83 | 1001.9 |
| 20260509101504 | 54 | 287 | 0.9 | 3.5 | 0.00 | 0.17 | 0.09 | 82 | 1002.0 |
| 20260509101004 | 55 | 298 | 0.9 | 3.5 | 0.00 | 0.17 | 0.09 | 82 | 1002.0 |
| 20260509100504 | 55 | 298 | 1.7 | 7.0 | 0.00 | 0.17 | 0.09 | 82 | 1002.0 |
| 20260509100005 | 55 | 295 | 2.6 | 7.0 | 0.00 | 0.17 | 0.09 | 81 | 1002.1 |
| 20260509095504 | 55 | 299 | 2.6 | 10.4 | 0.00 | 0.19 | 0.09 | 81 | 1002.1 |
| 20260509095004 | 55 | 293 | 3.5 | 10.4 | 0.00 | 0.20 | 0.09 | 81 | 1002.1 |
| 20260509094718 | 55 | 287 | 2.6 | 7.8 | 0.00 | 0.20 | 0.09 | 81 | 1002.0 |
| 20260509094219 | 55 | 284 | 2.6 | 8.7 | 0.00 | 0.20 | 0.09 | 81 | 1002.0 |
| 20260509093718 | 55 | 291 | 2.6 | 8.7 | 0.00 | 0.20 | 0.09 | 81 | 1001.9 |
| 20260509093219 | 55 | 295 | 2.6 | 7.0 | 0.00 | 0.20 | 0.09 | 81 | 1001.9 |
| 20260509092504 | 55 | 282 | 2.6 | 9.6 | 0.00 | 0.20 | 0.09 | 81 | 1001.9 |
| 20260509092004 | 55 | 281 | 3.5 | 9.6 | 0.00 | 0.20 | 0.09 | 81 | 1001.9 |
| 20260509091504 | 55 | 280 | 3.5 | 9.6 | 0.00 | 0.20 | 0.09 | 81 | 1001.8 |
| 20260509091004 | 55 | 281 | 3.5 | 7.8 | 0.00 | 0.20 | 0.09 | 81 | 1001.8 |
| 20260509090504 | 55 | 281 | 2.6 | 7.8 | 0.00 | 0.20 | 0.09 | 81 | 1001.7 |
| 20260509090219 | 55 | 281 | 2.6 | 7.8 | 0.00 | 0.20 | 0.09 | 81 | 1001.7 |
| 20260509085504 | 55 | 276 | 3.5 | 7.8 | 0.00 | 0.20 | 0.09 | 81 | 1001.6 |
| 20260509085004 | 55 | 274 | 3.5 | 7.8 | 0.00 | 0.20 | 0.09 | 80 | 1001.5 |
| 20260509084504 | 56 | 274 | 3.5 | 9.6 | 0.00 | 0.20 | 0.09 | 80 | 1001.4 |
| 20260509084004 | 56 | 275 | 4.3 | 11.3 | 0.00 | 0.20 | 0.09 | 79 | 1001.3 |
| 20260509083504 | 56 | 286 | 4.3 | 11.3 | 0.00 | 0.20 | 0.09 | 78 | 1001.2 |
| 20260509083005 | 56 | 291 | 3.5 | 13.9 | 0.00 | 0.20 | 0.09 | 78 | 1001.1 |
| 20260509082504 | 56 | 284 | 4.3 | 13.9 | 0.00 | 0.20 | 0.09 | 78 | 1001.1 |
| 20260509082004 | 56 | 288 | 3.5 | 13.9 | 0.00 | 0.20 | 0.09 | 78 | 1001.1 |
| 20260509081504 | 56 | 290 | 3.5 | 13.9 | 0.00 | 0.20 | 0.09 | 78 | 1001.2 |
| 20260509081004 | 56 | 287 | 3.5 | 13.9 | 0.00 | 0.20 | 0.09 | 78 | 1001.2 |
| 20260509080504 | 56 | 291 | 3.5 | 10.4 | 0.00 | 0.20 | 0.09 | 79 | 1001.3 |
| 20260509080004 | 56 | 289 | 3.5 | 8.7 | 0.00 | 0.20 | 0.09 | 80 | 1001.4 |
| 20260509075504 | 56 | 289 | 3.5 | 10.4 | 0.00 | 0.20 | 0.09 | 79 | 1001.4 |
| 20260509075004 | 56 | 293 | 4.3 | 10.4 | 0.00 | 0.20 | 0.09 | 79 | 1001.4 |
| 20260509074504 | 56 | 289 | 3.5 | 11.3 | 0.00 | 0.20 | 0.09 | 80 | 1001.4 |
| 20260509074218 | 56 | 289 | 3.5 | 11.3 | 0.00 | 0.20 | 0.09 | 80 | 1001.4 |
| 20260509073504 | 56 | 290 | 4.3 | 12.2 | 0.00 | 0.20 | 0.09 | 79 | 1001.4 |
| 20260509073218 | 56 | 288 | 4.3 | 12.2 | 0.00 | 0.20 | 0.09 | 79 | 1001.5 |
| 20260509072504 | 56 | 287 | 4.3 | 11.3 | 0.00 | 0.20 | 0.09 | 80 | 1001.5 |
| 20260509072004 | 56 | 287 | 4.3 | 11.3 | 0.00 | 0.20 | 0.09 | 80 | 1001.6 |
| 20260509071504 | 57 | 282 | 4.3 | 11.3 | 0.00 | 0.20 | 0.09 | 80 | 1001.6 |
| 20260509071004 | 57 | 275 | 5.2 | 11.3 | 0.00 | 0.20 | 0.09 | 80 | 1001.6 |
| 20260509070504 | 57 | 275 | 5.2 | 12.2 | 0.00 | 0.20 | 0.09 | 80 | 1001.6 |
| 20260509070040 | 57 | 285 | 5.2 | 12.2 | 0.00 | 0.20 | 0.09 | 79 | 1001.6 |
| 20260509065504 | 57 | 287 | 4.3 | 15.6 | 0.00 | 0.20 | 0.09 | 79 | 1001.7 |
| 20260509065004 | 57 | 288 | 4.3 | 15.6 | 0.00 | 0.20 | 0.09 | 79 | 1001.7 |
| 20260509064504 | 58 | 296 | 4.3 | 11.3 | 0.00 | 0.20 | 0.09 | 79 | 1001.8 |
| 20260509064004 | 58 | 290 | 4.3 | 12.2 | 0.00 | 0.20 | 0.09 | 79 | 1001.7 |
| 20260509063504 | 58 | 289 | 6.1 | 17.4 | 0.00 | 0.20 | 0.09 | 78 | 1001.7 |
| 20260509063218 | 58 | 293 | 7.0 | 17.4 | 0.00 | 0.20 | 0.09 | 78 | 1001.7 |
| 20260509062719 | 58 | 303 | 6.1 | 17.4 | 0.00 | 0.20 | 0.09 | 78 | 1001.7 |
| 20260509062004 | 59 | 309 | 7.8 | 16.5 | 0.00 | 0.20 | 0.09 | 79 | 1001.7 |
| 20260509061719 | 59 | 309 | 7.0 | 16.5 | 0.00 | 0.20 | 0.09 | 79 | 1001.6 |
| 20260509061004 | 59 | 306 | 6.1 | 16.5 | 0.00 | 0.20 | 0.09 | 81 | 1001.6 |
| 20260509060718 | 59 | 305 | 6.1 | 13.0 | 0.00 | 0.20 | 0.09 | 82 | 1001.6 |
| 20260509060005 | 59 | 301 | 6.1 | 13.0 | 0.00 | 0.20 | 0.09 | 83 | 1001.6 |
| 20260509055718 | 59 | 300 | 6.1 | 13.0 | 0.00 | 0.20 | 0.09 | 83 | 1001.5 |
| 20260509055004 | 59 | 310 | 6.1 | 12.2 | 0.00 | 0.20 | 0.09 | 82 | 1001.5 |
| 20260509054505 | 59 | 313 | 5.2 | 14.8 | 0.00 | 0.20 | 0.09 | 82 | 1001.5 |
| 20260509054004 | 59 | 313 | 5.2 | 15.6 | 0.00 | 0.20 | 0.09 | 83 | 1001.5 |
| 20260509053504 | 59 | 311 | 5.2 | 15.6 | 0.00 | 0.20 | 0.09 | 83 | 1001.5 |
| 20260509053004 | 59 | 310 | 5.2 | 13.9 | 0.00 | 0.20 | 0.09 | 84 | 1001.5 |
| 20260509052504 | 59 | 305 | 5.2 | 12.2 | 0.00 | 0.20 | 0.09 | 84 | 1001.4 |
| 20260509052219 | 59 | 305 | 6.1 | 13.9 | 0.00 | 0.20 | 0.09 | 84 | 1001.3 |
| 20260509051504 | 59 | 313 | 6.1 | 13.9 | 0.00 | 0.20 | 0.09 | 85 | 1001.3 |
| 20260509051219 | 59 | 311 | 5.2 | 13.0 | 0.00 | 0.20 | 0.09 | 85 | 1001.3 |
| 20260509050504 | 59 | 303 | 3.5 | 13.0 | 0.00 | 0.20 | 0.09 | 86 | 1001.2 |
| 20260509050004 | 59 | 304 | 4.3 | 10.4 | 0.01 | 0.20 | 0.09 | 86 | 1001.2 |
| 20260509045504 | 59 | 304 | 4.3 | 10.4 | 0.01 | 0.20 | 0.09 | 86 | 1001.2 |
| 20260509045004 | 59 | 308 | 4.3 | 14.8 | 0.01 | 0.20 | 0.09 | 86 | 1001.2 |
| 20260509044504 | 59 | 312 | 5.2 | 16.5 | 0.01 | 0.20 | 0.09 | 86 | 1001.2 |
| 20260509044004 | 59 | 310 | 5.2 | 16.5 | 0.04 | 0.20 | 0.09 | 86 | 1001.2 |
| 20260509043504 | 59 | 307 | 4.3 | 13.0 | 0.04 | 0.20 | 0.09 | 86 | 1001.2 |
| 20260509043219 | 59 | 306 | 5.2 | 12.2 | 0.04 | 0.20 | 0.09 | 86 | 1001.2 |
| 20260509042504 | 59 | 314 | 6.1 | 21.7 | 0.04 | 0.20 | 0.09 | 85 | 1001.1 |
| 20260509042219 | 59 | 315 | 6.1 | 21.7 | 0.04 | 0.20 | 0.09 | 85 | 1001.1 |
| 20260509041504 | 59 | 309 | 6.1 | 14.8 | 0.04 | 0.20 | 0.09 | 87 | 1001.1 |
| 20260509041004 | 59 | 308 | 7.0 | 18.2 | 0.04 | 0.20 | 0.09 | 87 | 1001.2 |
| 20260509040504 | 59 | 305 | 7.0 | 18.2 | 0.04 | 0.20 | 0.09 | 87 | 1001.3 |
| 20260509040005 | 59 | 305 | 6.1 | 17.4 | 0.02 | 0.19 | 0.08 | 89 | 1001.4 |
| 20260509035504 | 59 | 300 | 7.0 | 17.4 | 0.02 | 0.19 | 0.08 | 89 | 1001.5 |
| 20260509035004 | 59 | 292 | 7.8 | 17.4 | 0.02 | 0.19 | 0.08 | 88 | 1001.4 |
| 20260509034504 | 59 | 289 | 7.8 | 20.9 | 0.02 | 0.19 | 0.08 | 88 | 1001.3 |
| 20260509034004 | 60 | 284 | 7.0 | 20.9 | 0.00 | 0.17 | 0.06 | 84 | 1001.2 |
| 20260509033504 | 61 | 285 | 7.8 | 17.4 | 0.00 | 0.17 | 0.06 | 82 | 1001.1 |
| 20260509033005 | 62 | 285 | 8.7 | 22.6 | 0.00 | 0.17 | 0.06 | 80 | 1001.1 |
| 20260509032504 | 62 | 285 | 7.8 | 22.6 | 0.00 | 0.17 | 0.06 | 79 | 1001.0 |
| 20260509032004 | 64 | 298 | 7.8 | 18.2 | 0.00 | 0.17 | 0.06 | 76 | 1001.0 |
| 20260509031504 | 63 | 297 | 7.8 | 21.7 | 0.00 | 0.17 | 0.06 | 80 | 1001.0 |
| 20260509031004 | 62 | 293 | 7.8 | 21.7 | 0.00 | 0.17 | 0.06 | 80 | 1000.9 |
| 20260509030504 | 62 | 296 | 7.8 | 19.1 | 0.00 | 0.17 | 0.06 | 80 | 1000.8 |
| 20260509030004 | 62 | 302 | 7.8 | 18.2 | 0.00 | 0.17 | 0.06 | 81 | 1000.7 |
| 20260509025504 | 63 | 301 | 7.0 | 18.2 | 0.00 | 0.17 | 0.06 | 79 | 1000.6 |
| 20260509025004 | 64 | 311 | 6.1 | 20.0 | 0.00 | 0.17 | 0.06 | 78 | 1000.6 |
| 20260509024504 | 64 | 316 | 7.0 | 25.2 | 0.00 | 0.17 | 0.06 | 78 | 1000.6 |
| 20260509024004 | 64 | 307 | 7.8 | 25.2 | 0.00 | 0.17 | 0.06 | 78 | 1000.6 |
| 20260509023504 | 63 | 303 | 7.8 | 22.6 | 0.00 | 0.17 | 0.06 | 78 | 1000.6 |
| 20260509023004 | 63 | 302 | 6.1 | 19.1 | 0.00 | 0.17 | 0.06 | 79 | 1000.6 |
| 20260509022504 | 62 | 298 | 6.1 | 15.6 | 0.00 | 0.17 | 0.06 | 83 | 1000.7 |
| 20260509022004 | 61 | 297 | 6.1 | 16.5 | 0.00 | 0.17 | 0.06 | 84 | 1000.7 |
| 20260509021504 | 62 | 297 | 6.1 | 19.1 | 0.00 | 0.17 | 0.06 | 83 | 1000.7 |